Location: Bougoura
(13.1861°N, 5.0773°W)
Time: 01:34:23
(UTC+00:00)

TIMED - Pass Details

Date: 18 September 2020
Orbit: 603 x 604 km, 74.1° (Epoch: 21 October)

Event Time Altitude Azimuth Distance (km) Brightness Sun altitude
Rises 19:08:12 0° 350° (N) 2,845 8.2 -12.8°
Reaches altitude 10° 19:10:26 10° 352° (N) 1,942 7.3 -13.3°
Maximum altitude 19:14:46 72° 77° (ENE) 634 4.4 -14.4°
Drops below altitude 10° 19:19:05 10° 161° (SSE) 1,941 6.9 -15.4°
Sets 19:21:19 0° 163° (SSE) 2,843 7.7 -16.0°
